| time (UTC) | temp F | wind direction | speed MPH | gust MPH | rain 1hr in | rain 24hr in | rain mn in | humidity % | barometer mb |
| 20260831050043 | 0 | 177 | 0.0 | 0.0 | 0.00 | 0.00 | 0.00 | 1018.3 | |
| 20260831044542 | 0 | 177 | 0.0 | 1.0 | 0.00 | 0.00 | 0.00 | 1018.3 | |
| 20260831043034 | 0 | 177 | 0.0 | 1.0 | 0.00 | 0.00 | 0.00 | 1018.4 | |
| 20260831041547 | 0 | 177 | 0.0 | 1.0 | 0.00 | 0.00 | 0.00 | 1018.6 | |
| 20260831040036 | 0 | 177 | 0.0 | 2.0 | 0.00 | 0.00 | 0.00 | 1018.6 | |
| 20260831034521 | 0 | 177 | 0.0 | 0.0 | 0.00 | 0.00 | 0.00 | 1018.6 | |
| 20260831033017 | 0 | 177 | 0.0 | 1.0 | 0.00 | 0.00 | 0.00 | 1018.5 | |
| 20260831031512 | 0 | 177 | 0.0 | 2.0 | 0.00 | 0.00 | 0.00 | 1018.5 | |
| 20260831030008 | 0 | 177 | 0.0 | 2.0 | 0.00 | 0.00 | 0.00 | 1018.4 | |
| 20260831024504 | 0 | 178 | 2.0 | 5.0 | 0.00 | 0.00 | 0.00 | 1018.5 | |
| 20260831023059 | 0 | 182 | 2.0 | 5.0 | 0.00 | 0.00 | 0.00 | 1018.7 | |
| 20260831021556 | 0 | 190 | 2.0 | 4.0 | 0.00 | 0.00 | 0.00 | 1018.7 | |
| 20260831020050 | 0 | 189 | 1.0 | 2.0 | 0.00 | 0.00 | 0.00 | 1018.8 | |
| 20260831014546 | 0 | 189 | 2.0 | 5.0 | 0.00 | 0.00 | 0.00 | 1018.8 | |
| 20260831013042 | 0 | 185 | 3.0 | 4.0 | 0.00 | 0.00 | 0.00 | 1018.9 | |
| 20260831011542 | 0 | 198 | 2.0 | 6.0 | 0.00 | 0.00 | 0.00 | 1019.0 | |
| 20260831010033 | 0 | 186 | 2.0 | 6.0 | 0.00 | 0.00 | 0.00 | 1019.0 | |
| 20260831004531 | 0 | 184 | 1.0 | 3.0 | 0.00 | 0.00 | 0.00 | 1019.1 | |
| 20260831003025 | 0 | 184 | 1.0 | 2.0 | 0.00 | 0.00 | 0.00 | 1019.2 | |
| 20260831001520 | 0 | 184 | 1.0 | 2.0 | 0.00 | 0.00 | 0.00 | 1019.4 | |
| 20260831000016 | 0 | 184 | 1.0 | 3.0 | 0.00 | 0.00 | 0.00 | 1019.4 | |
| 20260830234514 | 0 | 184 | 1.0 | 3.0 | 0.00 | 0.00 | 0.00 | 1019.5 | |
| 20260830233006 | 0 | 184 | 1.0 | 4.0 | 0.00 | 0.00 | 0.00 | 1019.6 | |
| 20260830231502 | 0 | 186 | 0.0 | 2.0 | 0.00 | 0.00 | 0.00 | 1019.7 | |
| 20260830230057 | 0 | 186 | 0.0 | 3.0 | 0.00 | 0.00 | 0.00 | 1019.7 | |
| 20260830224558 | 0 | 186 | 0.0 | 3.0 | 0.00 | 0.00 | 0.00 | 1019.8 | |
| 20260830223048 | 0 | 192 | 2.0 | 4.0 | 0.00 | 0.00 | 0.00 | 1019.8 | |
| 20260830221548 | 0 | 196 | 3.0 | 5.0 | 0.00 | 0.00 | 0.00 | 1020.0 | |
| 20260830220040 | 0 | 188 | 4.0 | 7.0 | 0.00 | 0.00 | 0.00 | 1020.1 | |
| 20260830214536 | 0 | 202 | 6.0 | 7.0 | 0.00 | 0.00 | 0.00 | 1020.3 | |
| 20260830213032 | 0 | 189 | 5.0 | 8.0 | 0.00 | 0.00 | 0.00 | 1020.2 | |
| 20260830211527 | 0 | 189 | 7.0 | 11.0 | 0.00 | 0.00 | 0.00 | 1020.3 | |
| 20260830210022 | 0 | 192 | 8.0 | 11.0 | 0.00 | 0.00 | 0.00 | 1020.2 | |
| 20260830204518 | 0 | 202 | 5.0 | 9.0 | 0.00 | 0.00 | 0.00 | 1020.3 | |
| 20260830203013 | 0 | 202 | 6.0 | 9.0 | 0.00 | 0.00 | 0.00 | 1020.2 | |
| 20260830201509 | 0 | 200 | 5.0 | 8.0 | 0.00 | 0.00 | 0.00 | 1020.3 | |
| 20260830200005 | 0 | 190 | 6.0 | 9.0 | 0.00 | 0.00 | 0.00 | 1020.4 | |
| 20260830194600 | 0 | 198 | 6.0 | 11.0 | 0.00 | 0.00 | 0.00 | 1020.4 | |
| 20260830193055 | 0 | 188 | 9.0 | 14.0 | 0.00 | 0.00 | 0.00 | 1020.4 | |
| 20260830191555 | 0 | 191 | 9.0 | 14.0 | 0.00 | 0.00 | 0.00 | 1020.5 | |
| 20260830190047 | 0 | 209 | 8.0 | 12.0 | 0.00 | 0.00 | 0.00 | 1020.6 | |
| 20260830184543 | 0 | 200 | 8.0 | 13.0 | 0.00 | 0.00 | 0.00 | 1020.5 | |
| 20260830183038 | 0 | 190 | 6.0 | 11.0 | 0.00 | 0.00 | 0.00 | 1020.7 | |
| 20260830181534 | 0 | 195 | 8.0 | 11.0 | 0.00 | 0.00 | 0.00 | 1020.7 | |
| 20260830180049 | 0 | 204 | 6.0 | 9.0 | 0.00 | 0.00 | 0.00 | 1020.6 | |
| 20260830174525 | 0 | 200 | 6.0 | 10.0 | 0.00 | 0.00 | 0.00 | 1020.6 | |
| 20260830173023 | 0 | 198 | 6.0 | 9.0 | 0.00 | 0.00 | 0.00 | 1020.5 | |
| 20260830171517 | 0 | 190 | 7.0 | 9.0 | 0.00 | 0.00 | 0.00 | 1020.5 | |
| 20260830170012 | 0 | 202 | 5.0 | 10.0 | 0.00 | 0.00 | 0.00 | 1020.5 | |
| 20260830164507 | 0 | 189 | 6.0 | 9.0 | 0.00 | 0.00 | 0.00 | 1020.6 | |
| 20260830163010 | 0 | 183 | 6.0 | 8.0 | 0.00 | 0.00 | 0.00 | 1020.5 | |
| 20260830161606 | 0 | 205 | 5.0 | 10.0 | 0.00 | 0.00 | 0.00 | 1020.5 | |
| 20260830160058 | 0 | 183 | 5.0 | 9.0 | 0.00 | 0.00 | 0.00 | 1020.5 | |
| 20260830154550 | 0 | 193 | 6.0 | 9.0 | 0.00 | 0.01 | 0.00 | 1020.4 | |
| 20260830153045 | 0 | 170 | 5.0 | 11.0 | 0.00 | 0.01 | 0.00 | 1020.4 | |
| 20260830151541 | 0 | 190 | 6.0 | 10.0 | 0.00 | 0.01 | 0.00 | 1020.4 | |
| 20260830150039 | 0 | 192 | 5.0 | 8.0 | 0.00 | 0.01 | 0.00 | 1020.3 | |
| 20260830144534 | 0 | 188 | 5.0 | 8.0 | 0.00 | 0.01 | 0.00 | 1020.2 | |
| 20260830143031 | 0 | 189 | 5.0 | 9.0 | 0.00 | 0.01 | 0.00 | 1020.1 | |
| 20260830141537 | 0 | 190 | 5.0 | 7.0 | 0.00 | 0.01 | 0.00 | 1020.0 | |
| 20260830140019 | 0 | 196 | 2.0 | 7.0 | 0.00 | 0.01 | 0.00 | 1019.9 | |
| 20260830134515 | 0 | 190 | 3.0 | 7.0 | 0.00 | 0.01 | 0.00 | 1019.9 | |
| 20260830133011 | 0 | 191 | 5.0 | 7.0 | 0.00 | 0.01 | 0.00 | 1019.7 | |
| 20260830131506 | 0 | 186 | 4.0 | 6.0 | 0.00 | 0.01 | 0.00 | 1019.6 | |
| 20260830130003 | 0 | 184 | 5.0 | 9.0 | 0.00 | 0.01 | 0.00 | 1019.6 | |
| 20260830124619 | 0 | 191 | 5.0 | 8.0 | 0.00 | 0.06 | 0.00 | 1019.6 | |
| 20260830123059 | 0 | 201 | 4.0 | 9.0 | 0.00 | 0.06 | 0.00 | 1019.5 | |
| 20260830121548 | 0 | 194 | 3.0 | 5.0 | 0.00 | 0.06 | 0.00 | 1019.5 | |
| 20260830120045 | 0 | 195 | 3.0 | 6.0 | 0.00 | 0.06 | 0.00 | 1019.6 | |
| 20260830114555 | 0 | 167 | 0.0 | 2.0 | 0.00 | 0.10 | 0.00 | 1019.5 | |
| 20260830113035 | 0 | 167 | 1.0 | 4.0 | 0.00 | 0.10 | 0.00 | 1019.6 | |
| 20260830111531 | 0 | 169 | 0.0 | 4.0 | 0.00 | 0.10 | 0.00 | 1019.6 | |
| 20260830110026 | 0 | 186 | 2.0 | 6.0 | 0.00 | 0.10 | 0.00 | 1019.6 | |
| 20260830104527 | 0 | 176 | 0.0 | 3.0 | 0.00 | 0.13 | 0.00 | 1019.4 | |
| 20260830103024 | 0 | 176 | 0.0 | 2.0 | 0.00 | 0.13 | 0.00 | 1019.3 | |
| 20260830101513 | 0 | 177 | 0.0 | 2.0 | 0.00 | 0.13 | 0.00 | 1019.2 | |
| 20260830100012 | 0 | 178 | 1.0 | 5.0 | 0.00 | 0.13 | 0.00 | 1019.1 | |
| 20260830094509 | 0 | 201 | 2.0 | 6.0 | 0.00 | 0.13 | 0.00 | 1019.1 | |
| 20260830093100 | 0 | 206 | 4.0 | 5.0 | 0.00 | 0.13 | 0.00 | 1019.2 | |
| 20260830091556 | 0 | 182 | 2.0 | 5.0 | 0.00 | 0.13 | 0.00 | 1019.2 | |
| 20260830090103 | 0 | 230 | 3.0 | 6.0 | 0.00 | 0.13 | 0.00 | 1019.2 | |
| 20260830084547 | 0 | 194 | 2.0 | 4.0 | 0.00 | 0.13 | 0.00 | 1019.3 | |
| 20260830083043 | 0 | 196 | 2.0 | 4.0 | 0.00 | 0.13 | 0.00 | 1019.3 | |
| 20260830081542 | 0 | 210 | 3.0 | 5.0 | 0.00 | 0.13 | 0.00 | 1019.2 | |
| 20260830080034 | 0 | 211 | 2.0 | 4.0 | 0.00 | 0.13 | 0.00 | 1019.1 | |
| 20260830074529 | 0 | 210 | 4.0 | 7.0 | 0.00 | 0.13 | 0.00 | 1019.1 | |
| 20260830073028 | 0 | 217 | 4.0 | 7.0 | 0.00 | 0.13 | 0.00 | 1019.1 | |
| 20260830071521 | 0 | 191 | 2.0 | 5.0 | 0.00 | 0.13 | 0.00 | 1019.0 | |
| 20260830070016 | 0 | 173 | 2.0 | 6.0 | 0.00 | 0.13 | 0.00 | 1018.9 | |
| 20260830064514 | 0 | 213 | 5.0 | 7.0 | 0.00 | 0.13 | 0.13 | 1018.8 | |
| 20260830063008 | 0 | 194 | 3.0 | 8.0 | 0.00 | 0.13 | 0.13 | 1018.8 | |
| 20260830061512 | 0 | 211 | 5.0 | 8.0 | 0.00 | 0.13 | 0.13 | 1018.9 | |
| 20260830060059 | 0 | 189 | 4.0 | 7.0 | 0.00 | 0.13 | 0.13 | 1018.8 | |
| 20260830054603 | 0 | 216 | 3.0 | 6.0 | 0.00 | 0.13 | 0.13 | 1018.9 | |
| 20260830053050 | 0 | 215 | 4.0 | 7.0 | 0.00 | 0.13 | 0.13 | 1018.9 | |
| 20260830051546 | 0 | 213 | 4.0 | 8.0 | 0.00 | 0.13 | 0.13 | 1018.9 |